Regional Weather Roundup
Issued by NWS Goodland, KS

Home | Current Version | Previous Version | Graphics & Text | Print | Product List | Glossary On
Versions: 1 2 3 4 5 6 7 8 9 10 11 12 13 14 15 16 17 18 19 20 21 22 23 24 25 26 27 28 29 30 31 32 33 34 35 36 37 38 39 40 41 42 43 44 45 46 47 48 49 50
000
ASUS43 KGLD 240208
RWRGLD

GOODLAND FORECAST AREA HOURLY WEATHER ROUNDUP
NATIONAL WEATHER SERVICE GOODLAND KS
800 PM MDT WED JUL 23 2014

...OFFICIAL OBSERVATIONS...

CITY           SKY/WX    TMP DP  RH WIND       PRES   REMARKS
GOODLAND KS    PTCLDY    79  63  57 SE7       30.18S
HILL CITY KS   CLEAR     78  65  63 E9        30.15R
IMPERIAL NEB   CLEAR     77  63  61 SE16      30.15F
MCCOOK NEB     CLEAR     75  65  70 E10       30.16R
AKRON CO       MOCLDY    82  59  45 W3        30.20S
BURLINGTON CO  MOCLDY    81  63  54 S7        30.20F
LIMON CO       CLOUDY    82  58  43 S12       30.28S
$$

...UNOFFICIAL OBSERVATIONS...

CITY           SKY/WX    TMP DP  RH WIND       PRES   REMARKS
COLBY KS       CLEAR     81  68  65 E14       30.18R
GOVE KS          N/A     81  32  17 MISG        N/A
LENORA KS        N/A     76  32  20 MISG        N/A
NORTON KS      CLEAR     73  59  60 E7        30.15S
OBERLIN KS     FAIR      75  64  69 E8        30.15R
SHARON SPRINGS   N/A     83  68  59 SE12        N/A
ST FRANCIS KS  CLEAR     77  59  53 SE7       30.14F
TRIBUNE KS     PTCLDY    82  57  42 E15       30.19
WAKEENEY KS      N/A     79  60  52 MISG        N/A
TRENTON NEB      N/A     75  32  20 E12         N/A
KIT CARSON CO    N/A     85  62  46 N10         N/A
WRAY CO          N/A     86  59  39 SE7       30.15
YUMA CO          N/A     79  64  59 SE9         N/A
$$



USA.gov is the U.S. government's official web portal to all federal, state and local government web resources and services.